Albany, NY

5:35 AM EST on December 16, 2019 (GMT -0500)
Albany International

Weather History for KALB - October, 2019

Change the Weather History Date:

Saturday, October 19, 2019

  Actual Average Record
Temperature  
Mean Temperature 48 °F 48 °F  
Max Temperature 59 °F 59 °F 79 °F (1945)
Min Temperature 36 °F 38 °F 20 °F (1974)
Degree Days  
Heating Degree Days 17 17  
Month to date heating degree days 217 255  
Since 1 July heating degree days 294 422  
Cooling Degree Days 0 0  
Month to date cooling degree days 4 0  
Year to date cooling degree days 771 594  
Moisture  
Dew Point 36 °F    
Average Humidity 63    
Maximum Humidity 85    
Minimum Humidity 40    
Precipitation  
Precipitation 0.00 in 0.12 in 2.28 in (2012)
Month to date precipitation 5.34 2.31  
Year to date precipitation 36.55 31.76  
Snow  
Snow 0.00 in 0.00 in T in (1992)
Month to date snowfall 0.0 0.2  
Since 1 July snowfall 0.0 0.2  
Since 1 September snowfall 0.0 0.2  
Snow Depth 0.00 in    
Sea Level Pressure  
Sea Level Pressure 30.05 in    
Wind  
Wind Speed 3 mph (NW)    
Max Wind Speed 9 mph    
Max Gust Speed 14 mph    
Visibility 10 miles    
Events      
T = Trace of Precipitation, MM = Missing Value Source: NWS Daily Summary

Daily Weather History Graph

Daily Weather History Graph

Search for Another Location

Airport or City:

Astronomy

Oct. 19, 2019 Rise Set
Actual Time 7:12 AM EDT 6:06 PM EDT
Civil Twilight 6:44 AM EDT 6:35 PM EDT
Nautical Twilight 6:11 AM EDT 7:08 PM EDT
Astronomical Twilight 5:38 AM EDT 7:40 PM EDT
Moon 10:07 PM EDT (10/19) 12:48 PM EDT (10/19)
Length of Visible Light 11h 51m
Length of Day
10h 53m
Waning Gibbous, 70% of the Moon is Illuminated
Oct 19
Waning Gibbous
Oct 21
Last Quarter
Oct 27
New
Nov 4
First Quarter
Nov 12
Full

Hourly Weather History & Observations

Time (EDT) Temp. Windchill Dew Point Humidity Pressure Visibility Wind Dir Wind Speed Gust Speed Precip Events Conditions
12:51 AM 41.0 °F 38.0 °F 34.0 °F 76% 30.04 in 10.0 mi WSW 4.6 mph - N/A   Mostly Cloudy
1:51 AM 44.1 °F 40.8 °F 37.0 °F 76% 30.05 in 10.0 mi WSW 5.8 mph - N/A   Mostly Cloudy
2:51 AM 44.1 °F - 37.0 °F 76% 30.05 in 10.0 mi Calm Calm - N/A   Overcast
3:51 AM 45.0 °F - 37.0 °F 74% 30.04 in 10.0 mi Calm Calm - N/A   Overcast
4:51 AM 43.0 °F 41.3 °F 36.0 °F 76% 30.04 in 10.0 mi North 3.5 mph - N/A   Scattered Clouds
5:51 AM 39.0 °F - 35.1 °F 86% 30.05 in 10.0 mi Calm Calm - N/A   Clear
6:51 AM 37.9 °F - 34.0 °F 86% 30.06 in 10.0 mi Calm Calm - N/A   Partly Cloudy
7:51 AM 37.9 °F - 34.0 °F 86% 30.08 in 10.0 mi Calm Calm - N/A   Partly Cloudy
8:51 AM 45.0 °F 40.6 °F 37.9 °F 76% 30.09 in 10.0 mi NW 8.1 mph - N/A   Partly Cloudy
9:51 AM 48.9 °F - 37.0 °F 64% 30.09 in 10.0 mi NNW 8.1 mph - N/A   Partly Cloudy
10:51 AM 50.0 °F - 36.0 °F 59% 30.09 in 10.0 mi WNW 9.2 mph - N/A   Scattered Clouds
11:51 AM 53.1 °F - 35.1 °F 50% 30.08 in 10.0 mi North 8.1 mph - N/A   Partly Cloudy
12:51 PM 54.0 °F - 35.1 °F 49% 30.07 in 10.0 mi Variable 3.5 mph - N/A   Partly Cloudy
1:51 PM 57.0 °F - 35.1 °F 44% 30.04 in 10.0 mi NW 5.8 mph - N/A   Partly Cloudy
2:51 PM 57.9 °F - 35.1 °F 42% 30.03 in 10.0 mi Variable 3.5 mph - N/A   Partly Cloudy
3:51 PM 59.0 °F - 35.1 °F 41% 30.03 in 10.0 mi NW 4.6 mph - N/A   Partly Cloudy
4:51 PM 59.0 °F - 35.1 °F 41% 30.03 in 10.0 mi Calm Calm - N/A   Partly Cloudy
5:51 PM 55.9 °F - 34.0 °F 44% 30.02 in 10.0 mi NE 3.5 mph - N/A   Partly Cloudy
6:51 PM 50.0 °F - 37.0 °F 61% 30.03 in 10.0 mi NNW 3.5 mph - N/A   Partly Cloudy
7:51 PM 46.0 °F - 37.9 °F 73% 30.04 in 10.0 mi Calm Calm - N/A   Partly Cloudy
8:51 PM 43.0 °F - 37.0 °F 80% 30.04 in 10.0 mi Calm Calm - N/A   Partly Cloudy
9:51 PM 41.0 °F - 36.0 °F 82% 30.04 in 10.0 mi Calm Calm - N/A   Partly Cloudy
10:51 PM 42.1 °F - 37.0 °F 82% 30.05 in 10.0 mi Calm Calm - N/A   Scattered Clouds
11:51 PM 39.9 °F 37.8 °F 35.1 °F 83% 30.06 in 10.0 mi NNW 3.5 mph - N/A   Partly Cloudy